Regional Weather Roundup
Issued by NWS

Home | Current Version | Previous Version | Text Only | Print | Product List | Glossary On
Versions: 1 2 3 4 5 6 7 8 9 10 11 12 13 14 15 16 17 18 19 20 21 22 23 24 25 26 27 28 29 30 31 32 33 34 35 36 37 38 39 40 41 42 43 44 45 46 47 48 49 50
000
ASUS44 KBMX 110010
RWRAL

ALABAMA REGIONAL WEATHER ROUNDUP
NATIONAL WEATHER SERVICE BIRMINGHAM AL
700 PM CDT THU JUL 10 2014

NOTE: "FAIR" INDICATES FEW OR NO CLOUDS BELOW 12,000 FEET
WITH NO SIGNIFICANT WEATHER AND/OR OBSTRUCTIONS TO VISIBILITY.

THE REMARK "TC" DENOTES TEMPERATURE IN DEGREES CELSIUS.

ALZ001>011-014-016>018-020-110100-
NORTH ALABAMA

CITY           SKY/WX    TMP DP  RH WIND       PRES   REMARKS
MUSCLE SHOALS  MOSUNNY   84  62  47 N3        30.06R
6HR MIN TEMP:  84; 6HR MAX TEMP:  90;

HUNTSVILLE     MOSUNNY   84  66  54 NW5       30.04R
6HR MIN TEMP:  84; 6HR MAX TEMP:  90;

DECATUR        MOSUNNY   82  69  64 N3        30.05R
6HR MIN TEMP:  81; 6HR MAX TEMP:  87;

HALEYVILLE     FAIR      83  69  62 CALM      30.10R
6HR MIN TEMP:  83; 6HR MAX TEMP:  87;

GADSDEN        PTSUNNY   84  72  65 CALM      30.03R
6HR MIN TEMP:  82; 6HR MAX TEMP:  88;

$$

ALZ012-013-022-023-030>036-040>044-110100-
WEST CENTRAL ALABAMA

CITY           SKY/WX    TMP DP  RH WIND       PRES   REMARKS
TUSCALOOSA     MOSUNNY   87  68  52 NW3       30.03R HX  90
6HR MIN TEMP:  87; 6HR MAX TEMP:  90;

$$

ALZ015-024>027-033>036-040>044-110100-
CENTRAL ALABAMA

CITY           SKY/WX    TMP DP  RH WIND       PRES   REMARKS
BIRMINGHAM     PTSUNNY   86  68  54 N7        30.05R
6HR MIN TEMP:  86; 6HR MAX TEMP:  89;

MONTGOMERY     PTCLDY    84  72  67 CALM      30.04R
6HR MIN TEMP:  80; 6HR MAX TEMP:  93; 6HR PCP:  0.01;

SHELBY CO ARPT PTSUNNY   84  73  69 SW5       30.04R HX  90
6HR MIN TEMP:  81; 6HR MAX TEMP:  90;

MAXWELL AFB    PTCLDY    84  73  71 SW3       30.04R HX  90
6HR MIN TEMP:  77; 6HR MAX TEMP:  89; 6HR PCP:  0.18;

GREENVILLE     FAIR      81  72  74 CALM      30.05
6HR MIN TEMP:  77; 6HR MAX TEMP:  92; 6HR PCP: TRACE;

$$

ALZ019-021-028-029-037-038-045>048-110100-
EAST CENTRAL ALABAMA

CITY           SKY/WX    TMP DP  RH WIND       PRES   REMARKS
ANNISTON       MOCLDY    85  71  63 S3        30.04R HX  90
6HR MIN TEMP:  84; 6HR MAX TEMP:  88;

ALEXANDER CITY MOCLDY    82  73  75 SW5       30.07R
6HR MIN TEMP:  82; 6HR MAX TEMP:  91;

AUBURN         MOCLDY    77  68  73 SW6       30.10R
6HR MIN TEMP:  72; 6HR MAX TEMP:  82; 6HR PCP:  0.02;

$$

ALZ051>064-110100-
SOUTHWEST ALABAMA

CITY           SKY/WX    TMP DP  RH WIND       PRES   REMARKS
MOBILE         PTSUNNY   80  73  79 SW5       30.06R
6HR MIN TEMP:  72; 6HR MAX TEMP:  85; 6HR PCP:  0.17;

BROOKLEY FIELD PTSUNNY   80  74  81 CALM      30.06R
6HR MIN TEMP:  74; 6HR MAX TEMP:  90; 6HR PCP:  0.07;

EVERGREEN      MOSUNNY   82  73  74 W3        30.06S
6HR MIN TEMP:  77; 6HR MAX TEMP:  89; 6HR PCP:  0.04;

$$

ALZ049-050-065>069-110100-
SOUTHEAST ALABAMA

CITY           SKY/WX    TMP DP  RH WIND       PRES   REMARKS
DOTHAN         CLOUDY    74  70  87 S5        30.10F
6HR MIN TEMP:  73; 6HR MAX TEMP:  93; 6HR PCP:  0.09;

OZARK          CLOUDY    73  72  96 CALM      30.07S
6HR MIN TEMP:  73; 6HR MAX TEMP:  91; 6HR PCP:  1.08;

TROY           MOCLDY    80  71  74 SE3       30.07S
6HR MIN TEMP:  78; 6HR MAX TEMP:  88; 6HR PCP:  0.06;

EUFAULA        MOCLDY    82  73  74 S6        30.05R
6HR MIN TEMP:  77; 6HR MAX TEMP:  89; 6HR PCP:  0.11;

$$


USA.gov is the U.S. government's official web portal to all federal, state and local government web resources and services.